Station Historical Data
Daily Summary for June 18, 2017 Units:  English    Metric   Both
« Previous Day
Next Day »
Daily Weekly Monthly Yearly Custom
  High: Low: Average:
Temperature: 87.4 °F 69.9 °F 77.1 °F
Dew Point: 71.5 °F 66.1 °F 68.6 °F
Humidity: 90% 58% 76%
Wind Speed: 15.0mph 0.0mph 4.8mph
Wind Gust: 24.0mph - -
Wind- - SSW
Pressure: 29.69 in 29.57 in -
Precipitation: 0.00 in    
Historical Graphs
 
 
Tabular Data for June 18, 2017
Time Temperature Dew Point Pressure Wind Wind Speed Wind Gust Humidity Rainfall Rate (Hourly)
00:04 78.4 °F 66.5 °F 29.69 in SSE 2.0 mph 9.0 mph 67% 0.00 in
00:09 78.3 °F 66.9 °F 29.69 in South 3.0 mph 9.0 mph 68% 0.00 in
00:14 78.3 °F 67.3 °F 29.69 in South 3.0 mph 7.0 mph 69% 0.00 in
00:19 78.4 °F 67.4 °F 29.69 in South 3.0 mph 7.0 mph 69% 0.00 in
00:24 78.6 °F 67.6 °F 29.69 in SSW 3.0 mph 8.0 mph 69% 0.00 in
00:29 78.8 °F 67.8 °F 29.69 in SSW 4.0 mph 9.0 mph 69% 0.00 in
00:34 78.8 °F 67.8 °F 29.69 in SSW 2.0 mph 9.0 mph 69% 0.00 in
00:39 78.9 °F 67.9 °F 29.68 in South 4.0 mph 9.0 mph 69% 0.00 in
00:44 78.9 °F 67.9 °F 29.68 in South 4.0 mph 11.0 mph 69% 0.00 in
00:49 78.9 °F 68.3 °F 29.69 in South 4.0 mph 11.0 mph 70% 0.00 in
00:54 79.0 °F 68.4 °F 29.68 in South 4.0 mph 10.0 mph 70% 0.00 in
00:59 79.0 °F 68.4 °F 29.68 in South 4.0 mph 10.0 mph 70% 0.00 in
01:05 79.1 °F 68.5 °F 29.68 in South 4.0 mph 9.0 mph 70% 0.00 in
01:10 79.0 °F 68.4 °F 29.68 in SW 2.0 mph 6.0 mph 70% 0.00 in
01:15 79.0 °F 68.4 °F 29.68 in SSW 4.0 mph 12.0 mph 70% 0.00 in
01:20 78.9 °F 68.3 °F 29.68 in SSW 7.0 mph 9.0 mph 70% 0.00 in
01:25 78.8 °F 68.2 °F 29.68 in South 5.0 mph 10.0 mph 70% 0.00 in
01:30 78.8 °F 68.6 °F 29.68 in South 6.0 mph 10.0 mph 71% 0.00 in
01:35 78.6 °F 68.4 °F 29.68 in SSE 4.0 mph 6.0 mph 71% 0.00 in
01:40 78.3 °F 68.1 °F 29.67 in WSW 2.0 mph 10.0 mph 71% 0.00 in
01:45 78.3 °F 68.5 °F 29.67 in SSW 4.0 mph 10.0 mph 72% 0.00 in
01:50 78.2 °F 68.4 °F 29.67 in SSW 4.0 mph 10.0 mph 72% 0.00 in
01:55 78.0 °F 68.2 °F 29.67 in SSW 3.0 mph 9.0 mph 72% 0.00 in
02:00 77.8 °F 68.4 °F 29.67 in SSW 3.0 mph 8.0 mph 73% 0.00 in
02:05 77.8 °F 68.4 °F 29.66 in SSW 3.0 mph 8.0 mph 73% 0.00 in
02:10 77.7 °F 68.4 °F 29.66 in South 5.0 mph 9.0 mph 73% 0.00 in
02:15 77.8 °F 68.4 °F 29.66 in SSW 4.0 mph 12.0 mph 73% 0.00 in
02:20 77.7 °F 68.4 °F 29.66 in SW 3.0 mph 8.0 mph 73% 0.00 in
02:25 77.6 °F 68.3 °F 29.66 in South 2.0 mph 7.0 mph 73% 0.00 in
02:30 77.5 °F 68.2 °F 29.65 in SSW 3.0 mph 9.0 mph 73% 0.00 in
02:35 77.4 °F 68.1 °F 29.65 in South 3.0 mph 10.0 mph 73% 0.00 in
02:40 77.3 °F 68.0 °F 29.65 in South 5.0 mph 9.0 mph 73% 0.00 in
02:45 77.1 °F 68.2 °F 29.65 in SSW 3.0 mph 9.0 mph 74% 0.00 in
02:50 77.0 °F 68.1 °F 29.65 in SSW 3.0 mph 10.0 mph 74% 0.00 in
02:55 76.9 °F 68.0 °F 29.65 in SSW 3.0 mph 10.0 mph 74% 0.00 in
03:00 76.8 °F 67.9 °F 29.65 in SSW 4.0 mph 9.0 mph 74% 0.00 in
03:05 76.6 °F 68.1 °F 29.65 in SSW 3.0 mph 8.0 mph 75% 0.00 in
03:10 76.4 °F 67.9 °F 29.65 in SSW 1.0 mph 6.0 mph 75% 0.00 in
03:15 76.4 °F 67.9 °F 29.65 in SSW 3.0 mph 6.0 mph 75% 0.00 in
03:20 76.3 °F 67.8 °F 29.64 in SSW 2.0 mph 6.0 mph 75% 0.00 in
03:25 76.1 °F 67.6 °F 29.65 in South 3.0 mph 6.0 mph 75% 0.00 in
03:30 76.0 °F 67.5 °F 29.65 in SE 4.0 mph 7.0 mph 75% 0.00 in
03:35 75.9 °F 67.8 °F 29.65 in South 3.0 mph 7.0 mph 76% 0.00 in
03:40 75.9 °F 67.4 °F 29.65 in SSW 4.0 mph 7.0 mph 75% 0.00 in
03:45 76.0 °F 67.5 °F 29.65 in SSW 3.0 mph 8.0 mph 75% 0.00 in
03:50 75.9 °F 67.4 °F 29.65 in SSW 3.0 mph 8.0 mph 75% 0.00 in
03:55 75.9 °F 67.8 °F 29.65 in South 3.0 mph 7.0 mph 76% 0.00 in
04:00 75.9 °F 67.4 °F 29.65 in SSW 3.0 mph 8.0 mph 75% 0.00 in
04:05 76.0 °F 67.9 °F 29.65 in SSW 4.0 mph 8.0 mph 76% 0.00 in
04:10 76.1 °F 68.0 °F 29.65 in Calm   8.0 mph 76% 0.00 in
04:15 76.1 °F 68.0 °F 29.65 in South 3.0 mph 9.0 mph 76% 0.00 in
04:20 76.0 °F 67.9 °F 29.65 in South 4.0 mph 9.0 mph 76% 0.00 in
04:24 75.9 °F 67.8 °F 29.65 in SSW 1.0 mph 9.0 mph 76% 0.00 in
04:30 75.8 °F 67.7 °F 29.64 in SSW 5.0 mph 8.0 mph 76% 0.00 in
04:35 75.7 °F 67.6 °F 29.64 in SSW 4.0 mph 10.0 mph 76% 0.00 in
04:40 75.7 °F 67.6 °F 29.63 in SW 6.0 mph 13.0 mph 76% 0.00 in
04:45 75.7 °F 67.6 °F 29.63 in South 5.0 mph 13.0 mph 76% 0.00 in
04:50 75.7 °F 67.6 °F 29.64 in South 4.0 mph 10.0 mph 76% 0.00 in
04:55 75.8 °F 67.7 °F 29.64 in South 5.0 mph 14.0 mph 76% 0.00 in
05:00 75.8 °F 67.7 °F 29.64 in South 4.0 mph 7.0 mph 76% 0.00 in
05:05 75.8 °F 67.7 °F 29.64 in South 5.0 mph 6.0 mph 76% 0.00 in
05:10 75.8 °F 67.7 °F 29.64 in SW 3.0 mph 13.0 mph 76% 0.00 in
05:15 75.9 °F 67.8 °F 29.64 in South 5.0 mph 13.0 mph 76% 0.00 in
05:20 75.8 °F 67.7 °F 29.64 in SSW 4.0 mph 10.0 mph 76% 0.00 in
05:25 75.8 °F 67.7 °F 29.64 in SSW 4.0 mph 10.0 mph 76% 0.00 in
05:30 75.8 °F 67.7 °F 29.64 in SSW 4.0 mph 10.0 mph 76% 0.00 in
05:35 75.9 °F 67.8 °F 29.64 in SSW 4.0 mph 10.0 mph 76% 0.00 in
05:40 76.1 °F 67.6 °F 29.64 in SSW 4.0 mph 10.0 mph 75% 0.00 in
05:45 76.1 °F 67.6 °F 29.64 in SSW 4.0 mph 9.0 mph 75% 0.00 in
05:50 76.2 °F 67.7 °F 29.64 in SW 6.0 mph 12.0 mph 75% 0.00 in
05:55 76.1 °F 67.6 °F 29.64 in SSW 7.0 mph 11.0 mph 75% 0.00 in
06:00 76.1 °F 67.6 °F 29.64 in SSW 1.0 mph 12.0 mph 75% 0.00 in
06:05 76.1 °F 68.0 °F 29.64 in SW 6.0 mph 11.0 mph 76% 0.00 in
06:10 76.2 °F 68.1 °F 29.64 in South 3.0 mph 8.0 mph 76% 0.00 in
06:15 76.2 °F 67.7 °F 29.64 in South 4.0 mph 9.0 mph 75% 0.00 in
06:20 76.2 °F 67.7 °F 29.64 in South 4.0 mph 9.0 mph 75% 0.00 in
06:25 76.2 °F 67.7 °F 29.64 in South 4.0 mph 9.0 mph 75% 0.00 in
06:30 76.4 °F 67.9 °F 29.64 in South 4.0 mph 9.0 mph 75% 0.00 in
06:35 76.6 °F 68.1 °F 29.64 in South 4.0 mph 13.0 mph 75% 0.00 in
06:40 77.0 °F 68.1 °F 29.64 in SSE 7.0 mph 11.0 mph 74% 0.00 in
06:44 77.3 °F 68.4 °F 29.64 in South 5.0 mph 11.0 mph 74% 0.00 in
06:50 77.4 °F 68.5 °F 29.63 in South 5.0 mph 11.0 mph 74% 0.00 in
06:55 77.6 °F 68.7 °F 29.63 in South 4.0 mph 10.0 mph 74% 0.00 in
07:00 77.9 °F 68.5 °F 29.63 in South 2.0 mph 8.0 mph 73% 0.00 in
07:05 78.3 °F 68.9 °F 29.64 in South 7.0 mph 12.0 mph 73% 0.00 in
07:10 78.3 °F 68.9 °F 29.64 in SSE 6.0 mph 11.0 mph 73% 0.00 in
07:14 78.1 °F 68.7 °F 29.64 in South 5.0 mph 11.0 mph 73% 0.00 in
07:20 78.0 °F 68.6 °F 29.63 in SSW 5.0 mph 11.0 mph 73% 0.00 in
07:25 77.8 °F 68.8 °F 29.63 in SSW 4.0 mph 10.0 mph 74% 0.00 in
07:30 77.9 °F 68.9 °F 29.63 in SSE 6.0 mph 13.0 mph 74% 0.00 in
07:35 78.3 °F 68.9 °F 29.63 in SSW 3.0 mph 9.0 mph 73% 0.00 in
07:40 78.9 °F 69.1 °F 29.63 in South 5.0 mph 11.0 mph 72% 0.00 in
07:44 79.3 °F 69.1 °F 29.63 in SSW 5.0 mph 13.0 mph 71% 0.00 in
07:49 80.0 °F 69.3 °F 29.63 in SSW 6.0 mph 16.0 mph 70% 0.00 in
07:55 80.5 °F 69.8 °F 29.62 in SSW 7.0 mph 17.0 mph 70% 0.00 in
08:00 81.0 °F 69.9 °F 29.62 in SSW 6.0 mph 19.0 mph 69% 0.00 in
08:04 81.1 °F 70.0 °F 29.62 in SE 10.0 mph 13.0 mph 69% 0.00 in
08:10 81.8 °F 70.2 °F 29.62 in SW 5.0 mph 16.0 mph 68% 0.00 in
08:15 81.8 °F 70.2 °F 29.62 in SSW 7.0 mph 16.0 mph 68% 0.00 in
08:20 81.6 °F 70.0 °F 29.62 in South 10.0 mph 14.0 mph 68% 0.00 in
08:25 81.5 °F 70.3 °F 29.63 in South 6.0 mph 14.0 mph 69% 0.00 in
08:30 81.5 °F 69.9 °F 29.63 in SSW 6.0 mph 14.0 mph 68% 0.00 in
08:35 81.4 °F 70.2 °F 29.63 in SSW 6.0 mph 15.0 mph 69% 0.00 in
08:40 81.8 °F 70.2 °F 29.63 in South 12.0 mph 18.0 mph 68% 0.00 in
08:44 82.3 °F 70.7 °F 29.63 in SSW 7.0 mph 18.0 mph 68% 0.00 in
08:50 82.2 °F 70.1 °F 29.64 in SSW 6.0 mph 13.0 mph 67% 0.00 in
08:55 81.5 °F 69.9 °F 29.64 in SSW 7.0 mph 13.0 mph 68% 0.00 in
09:00 81.2 °F 69.6 °F 29.63 in SSW 8.0 mph 17.0 mph 68% 0.00 in
09:05 81.0 °F 69.4 °F 29.63 in SSW 8.0 mph 17.0 mph 68% 0.00 in
09:10 81.0 °F 69.4 °F 29.63 in SSW 8.0 mph 14.0 mph 68% 0.00 in
09:19 81.8 °F 70.2 °F 29.63 in South 4.0 mph 14.0 mph 68% 0.00 in
09:24 81.6 °F 69.6 °F 29.62 in SSW 8.0 mph 17.0 mph 67% 0.00 in
09:30 81.1 °F 70.0 °F 29.62 in SSE 4.0 mph 16.0 mph 69% 0.00 in
09:34 80.8 °F 69.7 °F 29.62 in SW 3.0 mph 16.0 mph 69% 0.00 in
09:40 80.9 °F 69.8 °F 29.62 in SSW 5.0 mph 13.0 mph 69% 0.00 in
09:45 81.2 °F 69.6 °F 29.62 in SSW 6.0 mph 15.0 mph 68% 0.00 in
09:50 81.3 °F 69.7 °F 29.62 in SSW 7.0 mph 18.0 mph 68% 0.00 in
09:55 81.4 °F 69.8 °F 29.62 in SSW 6.0 mph 18.0 mph 68% 0.00 in
10:00 81.5 °F 69.5 °F 29.62 in SSW 6.0 mph 13.0 mph 67% 0.00 in
10:05 81.6 °F 70.0 °F 29.62 in SW 4.0 mph 12.0 mph 68% 0.00 in
10:09 81.6 °F 69.6 °F 29.62 in SSW 6.0 mph 18.0 mph 67% 0.00 in
10:14 82.3 °F 70.2 °F 29.62 in SW 7.0 mph 18.0 mph 67% 0.00 in
10:19 83.3 °F 70.3 °F 29.61 in SW 6.0 mph 18.0 mph 65% 0.00 in
10:25 83.9 °F 70.4 °F 29.61 in SSW 14.0 mph 20.0 mph 64% 0.00 in
10:29 84.3 °F 70.8 °F 29.62 in South 7.0 mph 17.0 mph 64% 0.00 in
10:35 84.9 °F 70.4 °F 29.62 in SW 9.0 mph 17.0 mph 62% 0.00 in
10:39 84.6 °F 71.1 °F 29.62 in SW 8.0 mph 18.0 mph 64% 0.00 in
10:44 85.1 °F 70.1 °F 29.62 in SW 7.0 mph 18.0 mph 61% 0.00 in
10:49 85.1 °F 70.1 °F 29.61 in SW 7.0 mph 18.0 mph 61% 0.00 in
10:54 84.7 °F 70.2 °F 29.61 in SW 10.0 mph 14.0 mph 62% 0.00 in
11:00 84.3 °F 69.9 °F 29.61 in WSW 7.0 mph 17.0 mph 62% 0.00 in
11:05 83.9 °F 69.5 °F 29.61 in SW 8.0 mph 17.0 mph 62% 0.00 in
11:10 83.9 °F 70.0 °F 29.61 in WSW 6.0 mph 15.0 mph 63% 0.00 in
11:15 84.1 °F 70.1 °F 29.61 in SW 8.0 mph 15.0 mph 63% 0.00 in
11:19 84.3 °F 69.9 °F 29.60 in SW 8.0 mph 15.0 mph 62% 0.00 in
11:24 84.7 °F 70.7 °F 29.60 in SW 5.0 mph 16.0 mph 63% 0.00 in
11:29 85.7 °F 70.2 °F 29.60 in WSW 10.0 mph 15.0 mph 60% 0.00 in
11:34 86.5 °F 71.0 °F 29.60 in SSW 7.0 mph 14.0 mph 60% 0.00 in
11:39 87.1 °F 71.5 °F 29.60 in SW 7.0 mph 14.0 mph 60% 0.00 in
11:45 87.0 °F 70.9 °F 29.60 in SW 7.0 mph 18.0 mph 59% 0.00 in
11:49 87.2 °F 70.6 °F 29.60 in WSW 10.0 mph 13.0 mph 58% 0.00 in
11:55 86.3 °F 70.3 °F 29.60 in SW 8.0 mph 18.0 mph 59% 0.00 in
12:00 85.8 °F 70.8 °F 29.60 in South 10.0 mph 13.0 mph 61% 0.00 in
12:04 86.4 °F 70.9 °F 29.60 in West 5.0 mph 14.0 mph 60% 0.00 in
12:09 86.3 °F 70.3 °F 29.60 in SW 8.0 mph 19.0 mph 59% 0.00 in
12:14 86.5 °F 70.5 °F 29.60 in WSW 9.0 mph 19.0 mph 59% 0.00 in
12:19 87.4 °F 71.3 °F 29.60 in WSW 9.0 mph 19.0 mph 59% 0.00 in
12:25 87.1 °F 71.0 °F 29.60 in WSW 8.0 mph 18.0 mph 59% 0.00 in
12:30 85.6 °F 69.6 °F 29.60 in WSW 9.0 mph 19.0 mph 59% 0.00 in
12:34 86.1 °F 70.1 °F 29.60 in WSW 7.0 mph 22.0 mph 59% 0.00 in
12:40 86.6 °F 70.1 °F 29.60 in WSW 15.0 mph 21.0 mph 58% 0.00 in
12:44 85.5 °F 69.0 °F 29.60 in SW 12.0 mph 18.0 mph 58% 0.00 in
12:50 85.6 °F 69.1 °F 29.60 in SSW 2.0 mph 17.0 mph 58% 0.00 in
12:54 84.5 °F 69.1 °F 29.60 in WNW 8.0 mph 15.0 mph 60% 0.00 in
12:59 83.8 °F 68.9 °F 29.60 in South 5.0 mph 13.0 mph 61% 0.00 in
13:04 83.9 °F 69.0 °F 29.60 in WSW 7.0 mph 13.0 mph 61% 0.00 in
13:09 84.5 °F 69.1 °F 29.60 in WSW 7.0 mph 13.0 mph 60% 0.00 in
13:15 84.7 °F 68.3 °F 29.60 in WSW 7.0 mph 13.0 mph 58% 0.00 in
13:20 84.3 °F 67.9 °F 29.60 in WSW 7.0 mph 13.0 mph 58% 0.00 in
13:25 83.7 °F 67.8 °F 29.59 in WSW 8.0 mph 14.0 mph 59% 0.00 in
13:30 83.4 °F 68.1 °F 29.59 in WSW 6.0 mph 14.0 mph 60% 0.00 in
13:34 83.4 °F 67.6 °F 29.59 in WSW 5.0 mph 14.0 mph 59% 0.00 in
13:39 83.6 °F 67.8 °F 29.59 in SW 7.0 mph 12.0 mph 59% 0.00 in
13:44 83.6 °F 67.8 °F 29.60 in West 5.0 mph 14.0 mph 59% 0.00 in
13:49 83.0 °F 67.2 °F 29.59 in NW 2.0 mph 13.0 mph 59% 0.00 in
13:54 82.7 °F 67.4 °F 29.59 in WSW 6.0 mph 9.0 mph 60% 0.00 in
13:59 82.4 °F 68.1 °F 29.59 in WSW 7.0 mph 9.0 mph 62% 0.00 in
14:04 82.8 °F 68.4 °F 29.59 in SW 5.0 mph 11.0 mph 62% 0.00 in
14:09 83.4 °F 67.6 °F 29.58 in SSW 5.0 mph 12.0 mph 59% 0.00 in
14:14 82.4 °F 68.1 °F 29.59 in SW 5.0 mph 12.0 mph 62% 0.00 in
14:20 80.9 °F 68.5 °F 29.60 in SW 9.0 mph 24.0 mph 66% 0.00 in
14:25 76.5 °F 68.4 °F 29.60 in West 8.0 mph 17.0 mph 76% 0.03 in
14:29 74.2 °F 68.0 °F 29.59 in WSW 8.0 mph 17.0 mph 81% 0.03 in
14:34 74.2 °F 69.1 °F 29.58 in WSW 5.0 mph 12.0 mph 84% 0.04 in
14:39 74.8 °F 69.6 °F 29.58 in WSW 4.0 mph 9.0 mph 84% 0.04 in
14:44 75.4 °F 70.6 °F 29.57 in SW 3.0 mph 5.0 mph 85% 0.04 in
14:49 76.3 °F 70.8 °F 29.57 in South 2.0 mph 4.0 mph 83% 0.04 in
14:54 77.3 °F 71.4 °F 29.57 in South 1.0 mph 5.0 mph 82% 0.04 in
14:59 77.7 °F 71.4 °F 29.57 in South 2.0 mph 6.0 mph 81% 0.04 in
15:04 77.5 °F 70.5 °F 29.58 in South 4.0 mph 6.0 mph 79% 0.04 in
15:09 77.2 °F 70.2 °F 29.58 in South 4.0 mph 8.0 mph 79% 0.04 in
15:14 76.7 °F 69.7 °F 29.60 in South 6.0 mph 11.0 mph 79% 0.04 in
15:19 76.1 °F 69.5 °F 29.59 in SSE 4.0 mph 12.0 mph 80% 0.04 in
15:25 75.7 °F 69.8 °F 29.59 in SSW 6.0 mph 9.0 mph 82% 0.01 in
15:29 75.5 °F 70.3 °F 29.58 in SSW 4.0 mph 12.0 mph 84% 0.01 in
15:34 75.4 °F 70.2 °F 29.58 in SSW 4.0 mph 12.0 mph 84% 0.00 in
15:39 75.2 °F 70.0 °F 29.58 in SW 3.0 mph 6.0 mph 84% 0.00 in
15:44 75.2 °F 70.0 °F 29.58 in SSW 2.0 mph 7.0 mph 84% 0.00 in
15:49 75.3 °F 70.5 °F 29.59 in SSW 4.0 mph 4.0 mph 85% 0.01 in
15:54 75.0 °F 70.2 °F 29.61 in WSW 4.0 mph 8.0 mph 85% 0.03 in
15:59 74.6 °F 69.8 °F 29.61 in WSW 5.0 mph 13.0 mph 85% 0.06 in
16:04 73.9 °F 69.4 °F 29.59 in SSW 2.0 mph 7.0 mph 86% 0.20 in
16:09 73.4 °F 69.3 °F 29.59 in WSW 4.0 mph 6.0 mph 87% 0.22 in
16:14 73.1 °F 69.0 °F 29.60 in SSW 4.0 mph 6.0 mph 87% 0.22 in
16:19 72.9 °F 69.1 °F 29.60 in SW 2.0 mph 7.0 mph 88% 0.23 in
16:24 72.8 °F 69.0 °F 29.59 in SW 2.0 mph 5.0 mph 88% 0.24 in
16:29 72.7 °F 68.9 °F 29.60 in SW 3.0 mph 7.0 mph 88% 0.25 in
16:34 72.6 °F 68.8 °F 29.60 in SW 3.0 mph 9.0 mph 88% 0.26 in
16:39 72.4 °F 69.0 °F 29.60 in SW 3.0 mph 9.0 mph 89% 0.26 in
16:45 72.2 °F 68.8 °F 29.59 in SW 2.0 mph 6.0 mph 89% 0.27 in
16:49 72.2 °F 68.8 °F 29.59 in South 2.0 mph 5.0 mph 89% 0.26 in
16:54 72.5 °F 69.1 °F 29.60 in SW 5.0 mph 8.0 mph 89% 0.24 in
16:59 72.5 °F 69.1 °F 29.60 in SSW 5.0 mph 11.0 mph 89% 0.21 in
17:04 72.4 °F 68.6 °F 29.60 in SSW 5.0 mph 11.0 mph 88% 0.07 in
17:09 72.3 °F 68.2 °F 29.60 in SSW 4.0 mph 10.0 mph 87% 0.06 in
17:14 72.2 °F 68.1 °F 29.60 in SSW 5.0 mph 10.0 mph 87% 0.06 in
17:19 72.1 °F 67.7 °F 29.60 in SSW 5.0 mph 10.0 mph 86% 0.05 in
17:24 72.1 °F 67.7 °F 29.59 in SSE 4.0 mph 8.0 mph 86% 0.05 in
17:29 72.1 °F 67.7 °F 29.59 in SSW 4.0 mph 10.0 mph 86% 0.04 in
17:34 72.1 °F 67.7 °F 29.58 in South 2.0 mph 10.0 mph 86% 0.04 in
17:39 72.2 °F 67.8 °F 29.58 in SSW 3.0 mph 9.0 mph 86% 0.04 in
17:44 72.3 °F 68.2 °F 29.58 in SSW 6.0 mph 7.0 mph 87% 0.03 in
17:49 72.4 °F 68.3 °F 29.59 in SW 4.0 mph 7.0 mph 87% 0.03 in
17:54 72.6 °F 68.2 °F 29.59 in SW 4.0 mph 9.0 mph 86% 0.03 in
17:59 72.9 °F 68.5 °F 29.58 in SSW 5.0 mph 12.0 mph 86% 0.03 in
18:04 73.4 °F 69.3 °F 29.58 in SSW 5.0 mph 12.0 mph 87% 0.03 in
18:09 74.4 °F 70.6 °F 29.59 in SSW 4.0 mph 10.0 mph 88% 0.02 in
18:15 74.3 °F 69.5 °F 29.59 in SSW 5.0 mph 10.0 mph 85% 0.02 in
18:20 74.4 °F 69.6 °F 29.59 in South 6.0 mph 10.0 mph 85% 0.02 in
18:25 74.6 °F 69.4 °F 29.59 in SSW 4.0 mph 11.0 mph 84% 0.01 in
18:29 74.6 °F 69.1 °F 29.59 in SSE 4.0 mph 9.0 mph 83% 0.01 in
18:34 74.7 °F 69.2 °F 29.59 in South 4.0 mph 13.0 mph 83% 0.00 in
18:39 74.8 °F 69.3 °F 29.59 in South 3.0 mph 11.0 mph 83% 0.00 in
18:44 74.8 °F 69.3 °F 29.58 in SSW 7.0 mph 10.0 mph 83% 0.00 in
18:49 74.9 °F 69.4 °F 29.58 in SSW 2.0 mph 10.0 mph 83% 0.00 in
18:54 75.0 °F 69.5 °F 29.58 in SSE 3.0 mph 11.0 mph 83% 0.00 in
18:59 75.3 °F 69.4 °F 29.58 in South 4.0 mph 11.0 mph 82% 0.00 in
19:04 75.7 °F 69.8 °F 29.58 in South 4.0 mph 10.0 mph 82% 0.00 in
19:09 76.1 °F 69.8 °F 29.58 in South 4.0 mph 9.0 mph 81% 0.00 in
19:15 76.0 °F 69.4 °F 29.58 in South 5.0 mph 13.0 mph 80% 0.00 in
19:19 75.8 °F 68.8 °F 29.58 in SSW 1.0 mph 12.0 mph 79% 0.00 in
19:24 75.6 °F 69.0 °F 29.59 in South 5.0 mph 10.0 mph 80% 0.00 in
19:29 75.4 °F 68.4 °F 29.59 in SSW 5.0 mph 15.0 mph 79% 0.00 in
19:34 75.2 °F 68.6 °F 29.59 in SSW 6.0 mph 9.0 mph 80% 0.00 in
19:39 75.0 °F 68.4 °F 29.58 in SSW 4.0 mph 11.0 mph 80% 0.00 in
19:44 74.7 °F 68.1 °F 29.59 in South 4.0 mph 12.0 mph 80% 0.00 in
19:49 74.4 °F 68.2 °F 29.59 in South 7.0 mph 15.0 mph 81% 0.00 in
19:54 74.2 °F 68.0 °F 29.59 in SSE 3.0 mph 12.0 mph 81% 0.00 in
19:59 73.8 °F 68.0 °F 29.60 in SSW 6.0 mph 15.0 mph 82% 0.01 in
20:04 73.4 °F 67.9 °F 29.60 in SSW 6.0 mph 15.0 mph 83% 0.01 in
20:09 73.1 °F 67.6 °F 29.60 in SSW 6.0 mph 15.0 mph 83% 0.01 in
20:14 72.8 °F 67.7 °F 29.60 in SW 5.0 mph 11.0 mph 84% 0.02 in
20:19 72.6 °F 67.8 °F 29.61 in South 7.0 mph 13.0 mph 85% 0.02 in
20:24 72.4 °F 68.0 °F 29.62 in SSW 7.0 mph 11.0 mph 86% 0.03 in
20:29 72.1 °F 67.7 °F 29.61 in SSW 6.0 mph 11.0 mph 86% 0.05 in
20:34 71.9 °F 67.8 °F 29.62 in SSW 6.0 mph 13.0 mph 87% 0.06 in
20:39 71.8 °F 68.1 °F 29.61 in SW 6.0 mph 14.0 mph 88% 0.08 in
20:44 71.6 °F 67.9 °F 29.61 in WSW 4.0 mph 8.0 mph 88% 0.10 in
20:49 71.5 °F 67.8 °F 29.61 in SSW 4.0 mph 10.0 mph 88% 0.12 in
20:54 71.4 °F 68.0 °F 29.61 in WSW 8.0 mph 11.0 mph 89% 0.15 in
20:59 71.4 °F 68.0 °F 29.61 in SSW 5.0 mph 13.0 mph 89% 0.16 in
21:04 71.3 °F 67.9 °F 29.61 in SSW 6.0 mph 13.0 mph 89% 0.18 in
21:09 71.2 °F 68.1 °F 29.62 in SW 3.0 mph 10.0 mph 90% 0.21 in
21:14 71.1 °F 68.0 °F 29.61 in SW 7.0 mph 15.0 mph 90% 0.21 in
21:19 71.0 °F 67.9 °F 29.61 in SW 4.0 mph 9.0 mph 90% 0.21 in
21:24 71.0 °F 67.9 °F 29.61 in SSW 5.0 mph 11.0 mph 90% 0.22 in
21:29 70.9 °F 67.8 °F 29.61 in SSW 5.0 mph 13.0 mph 90% 0.20 in
21:34 70.9 °F 67.8 °F 29.62 in SSW 6.0 mph 13.0 mph 90% 0.20 in
21:39 70.7 °F 67.6 °F 29.62 in SSW 6.0 mph 12.0 mph 90% 0.17 in
21:44 70.6 °F 67.5 °F 29.62 in SSW 5.0 mph 10.0 mph 90% 0.15 in
21:50 70.5 °F 67.4 °F 29.63 in SSW 5.0 mph 11.0 mph 90% 0.13 in
21:54 70.3 °F 67.2 °F 29.63 in SSW 4.0 mph 13.0 mph 90% 0.11 in
21:59 70.2 °F 67.1 °F 29.64 in West 3.0 mph 8.0 mph 90% 0.09 in
22:04 70.2 °F 67.1 °F 29.63 in South 3.0 mph 12.0 mph 90% 0.07 in
22:09 70.3 °F 67.2 °F 29.63 in South 1.0 mph 8.0 mph 90% 0.04 in
22:14 70.3 °F 67.2 °F 29.63 in SW 9.0 mph 9.0 mph 90% 0.03 in
22:19 70.3 °F 67.2 °F 29.64 in SSW 4.0 mph 11.0 mph 90% 0.02 in
22:24 70.1 °F 67.0 °F 29.64 in SSW 5.0 mph 11.0 mph 90% 0.01 in
22:29 70.1 °F 66.7 °F 29.63 in SSW 4.0 mph 10.0 mph 89% 0.01 in
22:34 70.0 °F 66.6 °F 29.64 in SW 3.0 mph 9.0 mph 89% 0.00 in
22:39 69.9 °F 66.5 °F 29.64 in SW 3.0 mph 9.0 mph 89% 0.00 in
22:44 70.0 °F 66.6 °F 29.64 in WSW 3.0 mph 5.0 mph 89% 0.00 in
22:49 69.9 °F 66.5 °F 29.64 in WSW 4.0 mph 5.0 mph 89% 0.00 in
22:54 69.9 °F 66.5 °F 29.65 in SW 2.0 mph 5.0 mph 89% 0.00 in
22:59 69.9 °F 66.5 °F 29.65 in SW 2.0 mph 5.0 mph 89% 0.00 in
23:04 69.9 °F 66.5 °F 29.65 in SW 2.0 mph 7.0 mph 89% 0.00 in
23:09 69.9 °F 66.5 °F 29.65 in SW 2.0 mph 7.0 mph 89% 0.00 in
23:14 70.0 °F 66.3 °F 29.65 in SW 2.0 mph 5.0 mph 88% 0.00 in
23:19 70.1 °F 66.4 °F 29.65 in SW 3.0 mph 5.0 mph 88% 0.00 in
23:24 70.1 °F 66.4 °F 29.65 in SSW 2.0 mph 6.0 mph 88% 0.00 in
23:29 70.2 °F 66.5 °F 29.65 in SW 2.0 mph 6.0 mph 88% 0.00 in
23:34 70.1 °F 66.4 °F 29.65 in Calm   6.0 mph 88% 0.00 in
23:39 70.2 °F 66.1 °F 29.65 in SSW 3.0 mph 4.0 mph 87% 0.00 in
23:44 70.2 °F 66.1 °F 29.65 in SSW 1.0 mph 7.0 mph 87% 0.00 in
23:49 70.2 °F 66.1 °F 29.65 in Calm   5.0 mph 87% 0.00 in
23:54 70.3 °F 66.2 °F 29.66 in West 5.0 mph 5.0 mph 87% 0.00 in
23:59 70.3 °F 66.2 °F 29.65 in West 3.0 mph 6.0 mph 87% 0.00 in
Buffalo, New York, USA
Compliments of Weather Underground - 2.5 mb